Charleston, WV

11:26 PM EDT on October 23, 2017 (GMT -0400)
Yeager Airport

Weather History for KCRW - March, 2013

Change the Weather History Date:

Thursday, March 14, 2013

  Actual Average Record
Temperature  
Mean Temperature 36 °F 45 °F  
Max Temperature 45 °F 55 °F 89 °F (1990)
Min Temperature 27 °F 35 °F 11 °F (1960)
Degree Days  
Heating Degree Days 29 20  
Month to date heating degree days 366 310  
Since 1 July heating degree days 3749 3764  
Cooling Degree Days 0 0  
Month to date cooling degree days 0 0  
Year to date cooling degree days 0 0  
Moisture  
Dew Point 16 °F    
Average Humidity 52    
Maximum Humidity 75    
Minimum Humidity 29    
Precipitation  
Precipitation T in 0.14 in 1.88 in (1918)
Month to date precipitation 0.86 1.80  
Year to date precipitation 6.89 7.99  
Snow  
Snow T in - - ()
Month to date snowfall 1.8  
Since 1 September snowfall 24.6  
Snow Depth 0.00 in    
Sea Level Pressure  
Sea Level Pressure 30.28 in    
Wind  
Wind Speed 7 mph (West)    
Max Wind Speed 17 mph    
Max Gust Speed 26 mph    
Visibility 10 miles    
Events Snow    
T = Trace of Precipitation, MM = Missing Value Source: NWS Daily Summary

Daily Weather History Graph

Daily Weather History Graph

Search for Another Location

Airport or City:

Trip Planner

Search our weather history database for the weather conditions in past years. The results will help you decide how hot, cold, wet, or windy it might be!

Date:

Astronomy

Mar. 14, 2013 Rise Set
Actual Time 7:38 AM EDT 7:32 PM EDT
Civil Twilight 7:12 AM EDT 7:59 PM EDT
Nautical Twilight 6:41 AM EDT 8:29 PM EDT
Astronomical Twilight 6:10 AM EDT 9:00 PM EDT
Moon 8:54 AM EDT (3/14) 10:44 PM EDT (3/14)
Length of Visible Light 12h 46m
Length of Day
11h 54m
Waxing Crescent, 9% of the Moon is Illuminated
Mar 14
Waxing Crescent
Mar 19
First Quarter
Mar 27
Full
Apr 3
Last Quarter
Apr 10
New

Hourly Weather History & Observations

Time (EDT) Temp. Windchill Dew Point Humidity Pressure Visibility Wind Dir Wind Speed Gust Speed Precip Events Conditions
12:35 AM 28.4 °F 19.7 °F 21.2 °F 74% 30.25 in 9.0 mi West 9.2 mph 24.2 mph 0.00 in Snow Light Snow
12:54 AM 28.9 °F 21.1 °F 21.0 °F 72% 30.28 in 9.0 mi West 8.1 mph - 0.00 in Snow Light Snow
1:54 AM 28.9 °F 19.2 °F 19.0 °F 67% 30.29 in 9.0 mi West 11.5 mph 18.4 mph 0.00 in Snow Light Snow
2:54 AM 28.0 °F 24.2 °F 19.0 °F 69% 30.30 in 9.0 mi West 3.5 mph - 0.00 in Snow Light Snow
3:54 AM 28.0 °F 20.0 °F 18.0 °F 66% 30.29 in 9.0 mi West 8.1 mph - 0.00 in Snow Light Snow
4:54 AM 28.0 °F 18.1 °F 16.0 °F 61% 30.29 in 9.0 mi West 11.5 mph - 0.00 in Snow Light Snow
5:54 AM 28.0 °F 17.0 °F 16.0 °F 61% 30.31 in 9.0 mi WNW 13.8 mph 19.6 mph 0.00 in Snow Light Snow
6:54 AM 27.0 °F 21.6 °F 16.0 °F 63% 30.33 in 9.0 mi Variable 4.6 mph - 0.00 in   Overcast
7:54 AM 27.0 °F 20.5 °F 17.1 °F 66% 30.35 in 10.0 mi West 5.8 mph - N/A   Mostly Cloudy
8:29 AM 26.6 °F 19.1 °F 17.6 °F 69% 30.32 in 10.0 mi West 6.9 mph - N/A   Scattered Clouds
8:54 AM 28.0 °F 20.8 °F 19.0 °F 69% 30.36 in 10.0 mi West 6.9 mph - N/A   Scattered Clouds
9:40 AM 28.4 °F 21.2 °F 17.6 °F 64% 30.33 in 10.0 mi Variable 6.9 mph - N/A   Mostly Cloudy
9:54 AM 28.9 °F 21.9 °F 18.0 °F 64% 30.36 in 10.0 mi WSW 6.9 mph - N/A   Mostly Cloudy
10:54 AM 32.0 °F 28.7 °F 17.1 °F 54% 30.36 in 10.0 mi Variable 3.5 mph - N/A   Mostly Cloudy
11:30 AM 32.0 °F 26.4 °F 15.8 °F 51% 30.33 in 10.0 mi NW 5.8 mph - N/A   Mostly Cloudy
11:54 AM 33.1 °F 25.5 °F 17.1 °F 52% 30.35 in 10.0 mi SW 9.2 mph - N/A   Scattered Clouds
12:54 PM 36.0 °F 32.1 °F 15.1 °F 43% 30.32 in 10.0 mi SW 4.6 mph - N/A   Partly Cloudy
1:54 PM 37.9 °F 30.9 °F 14.0 °F 38% 30.30 in 10.0 mi WSW 10.4 mph 17.3 mph N/A   Clear
2:54 PM 39.9 °F 32.5 °F 12.0 °F 32% 30.26 in 10.0 mi WNW 12.7 mph 25.3 mph N/A   Clear
3:54 PM 43.0 °F 36.4 °F 12.0 °F 28% 30.23 in 10.0 mi WNW 12.7 mph 26.5 mph N/A   Clear
4:54 PM 43.0 °F 36.4 °F 12.0 °F 28% 30.22 in 10.0 mi West 12.7 mph 20.7 mph N/A   Clear
5:54 PM 43.0 °F 37.7 °F 12.0 °F 28% 30.21 in 10.0 mi WNW 9.2 mph 16.1 mph N/A   Clear
6:54 PM 42.1 °F 38.4 °F 12.0 °F 29% 30.21 in 10.0 mi WNW 5.8 mph - N/A   Clear
7:54 PM 39.9 °F 35.8 °F 12.0 °F 32% 30.21 in 10.0 mi West 5.8 mph - N/A   Clear
8:54 PM 37.9 °F - 12.9 °F 36% 30.21 in 10.0 mi Calm Calm - N/A   Clear
9:54 PM 37.0 °F 34.5 °F 12.9 °F 37% 30.22 in 10.0 mi WSW 3.5 mph - N/A   Clear
10:54 PM 35.1 °F - 14.0 °F 42% 30.22 in 10.0 mi Calm Calm - N/A   Clear
11:54 PM 34.0 °F 31.0 °F 15.1 °F 46% 30.23 in 10.0 mi SW 3.5 mph - N/A   Clear